Tracking 35280 objects as of 7-Sep-2026
HD Live streaming from Space Station
objects crossing your sky now

NOAA 16 DEB

Track NOAA 16 DEB now!
10-day predictions


NORAD ID: 41409
Int'l Code: 2000-055KN
Launch date: September 21, 2000
Source: United States (US)
Launch site: AIR FORCE WESTERN TEST RANGE (AFWTR)

Note: This is SATELLITE DEBRIS
Your satellite tracking list
Your tracking list is empty




NASA's NSSDC Master Catalog

Two Line Element Set (TLE):
1 41409U 00055KN  26250.08774507  .00003543  00000-0  10326-2 0  9990
2 41409  98.6382 338.8425 0022115 316.6815  43.2637 14.44646293547790
Source of the keplerian elements: AFSPC